Tracking 30743 objects as of 21-Jun-2025
HD Live streaming from Space Station
objects crossing your sky now

CZ-2C DEB

Track CZ-2C DEB now!
10-day predictions


NORAD ID: 40263
Int'l Code: 2014-059C
Perigee: 588.9 km
Apogee: 682.6 km
Inclination: 98.2 °
Period: 97.3 minutes
Semi major axis: 7006 km
RCS: Unknown
Launch date: September 28, 2014
Source: People's Republic of China (PRC)
Launch site: Jiuquan Satellite Launch Center, China (JSC)

Note: This is SATELLITE DEBRIS
Your satellite tracking list
Your tracking list is empty




NASA's NSSDC Master Catalog

Two Line Element Set (TLE):
1 40263U 14059C   25171.22262387  .00007091  00000-0  90437-3 0  9995
2 40263  98.1892 268.9841 0066889  19.7788 340.5994 14.80224526569322
Source of the keplerian elements: AFSPC